Regional Weather Roundup
Issued by NWS

Home | Current Version | Previous Version | Graphics & Text | Print | Product List | Glossary On
Versions: 1 2 3 4 5 6 7 8 9 10 11 12 13 14 15 16 17 18 19 20 21 22 23 24 25 26 27 28 29 30 31 32 33 34 35 36 37 38 39 40 41 42 43 44 45 46 47 48 49 50
000
ASUS43 KDMX 241601
RWRIA

WEATHER ROUNDUP FOR IOWA
NATIONAL WEATHER SERVICE DES MOINES IA
1000 AM CST TUE JAN 24 2017

NOTE: "FAIR" INDICATES FEW OR NO CLOUDS BELOW 12,000 FEET WITH NO
SIGNIFICANT WEATHER AND/OR OBSTRUCTIONS TO VISIBILITY.

* - THESE STATIONS ARE NOT NWS STATIONS...THUS NOT UNDER NWS
QUALITY CONTROL.  THEY ALSO DO NOT REPORT WEATHER SUCH
AS PRECIPITATION OR FOG.

IAZ001>003-012>014-020>022-031>034-043>046-241700-
   NORTHWEST IOWA

CITY           SKY/WX    TMP DP  RH WIND       PRES   REMARKS
CARROLL *      CLOUDY    32  32 100 E14       29.79S WCI  22
CHEROKEE *     CLOUDY    31  30  96 E15       29.78R WCI  20
DENISON *      LGT SNOW  30  30 100 E17G25    29.73F WCI  18
LE MARS *      CLOUDY    32  28  86 E13G21    29.79R WCI  22
ORANGE CITY *  CLOUDY    30  28  93 E14G20    29.76R WCI  20
SHELDON *      CLOUDY    30  32 100 E17       29.74F WCI  18
SIOUX CITY     CLOUDY    33  29  85 SE13      29.76S WCI  24
SPENCER        CLOUDY    31  29  92 E20       29.79F WCI  19
STORM LAKE *   CLOUDY    30  30 100 E16G22    29.77S FOG     WCI  19
$$

IAZ055>058-069>071-079>083-090>094-241700-
   SOUTHWEST IOWA

CITY           SKY/WX    TMP DP  RH WIND       PRES   REMARKS
ATLANTIC *     CLOUDY    30  30 100 E13       29.76F FOG     WCI  20
AUDUBON *      CLOUDY    30  28  93 E13       29.78F FOG     WCI  20
CLARINDA *     CLOUDY    32  32 100 E14       29.75F WCI  22
COUNCIL BLFS * CLOUDY    30  30 100 E12G21    29.73S WCI  21
CRESTON *      FOG       30  30 100 E16G23    29.77F VSB 1/4 WCI  19
HARLAN  *      CLOUDY    30  30 100 E13       29.79F FOG     WCI  20
LAMONI         CLOUDY    30  29  96 E9        29.78S FOG     WCI  22
RED OAK *      CLOUDY    32  30  93 E8G15     29.75S WCI  25
SHENANDOAH *   CLOUDY    34  30  86 E15G25    29.73F WCI  24
$$

IAZ047>049-059>061-072>074-084-241700-
   CENTRAL IOWA

CITY           SKY/WX    TMP DP  RH WIND       PRES   REMARKS
AMES           CLOUDY    32  30  92 E10       29.83F WCI  24
ANKENY *       CLOUDY    32  30  93 E12       29.84S WCI  23
BOONE *        CLOUDY    32  32 100 E14G22    29.80F WCI  22
CHARITON *     CLOUDY    30  30 100 E12G18    29.82F FOG     WCI  21
DES MOINES     CLOUDY    32  29  88 SE9       29.84R WCI  24
GRINNELL*      CLOUDY    31  29  91 E9        29.85F WCI  23
KNOXVILLE *    CLOUDY    30  28  93 SE14      29.83R FOG     WCI  20
MARSHALLTOWN   CLOUDY    32  29  88 E12       29.84S WCI  23
NEWTON *       CLOUDY    32  30  93 E14       29.84S WCI  22
PELLA *        CLOUDY    31  29  93 E7        29.87R FOG     WCI  25
PERRY *        CLOUDY    32  31  94 E13       29.81F FOG     WCI  22
$$

IAZ004>006-015-016-023>025-035-036-241700-
   NORTH CENTRAL IOWA

CITY           SKY/WX    TMP DP  RH WIND       PRES   REMARKS
ALGONA *       CLOUDY    30  30 100 E14       29.82F WCI  20
CLARION *      CLOUDY    32  32 100 E12       29.83S WCI  23
ESTHERVILLE    CLOUDY    29  28  96 E16       29.81F WCI  17
FORT DODGE *   CLOUDY    30  27  86 E13       29.83R WCI  20
MASON CITY     CLOUDY    30  27  88 E7        29.86F WCI  23
FOREST CITY *  CLOUDY    30  30 100 E9        29.85F WCI  22
WEBSTER CITY * CLOUDY    32 N/A N/A E14       29.81S WCI  22
IOWA FALLS *   CLOUDY    32  29  89 E12       29.85S WCI  23
$$

IAZ007>011-017>019-026>030-037>042-050>054-066-241700-
   NORTHEAST IOWA

CITY           SKY/WX    TMP DP  RH WIND       PRES   REMARKS
CEDAR RAPIDS   CLOUDY    31  28  89 E8        29.86S FOG     WCI  23
CHARLES CITY * CLOUDY    30  30 100 E6        29.87S WCI  24
CLINTON *      CLOUDY    35  33  92 CALM      29.90F
DECORAH *      CLOUDY    32  28  86 CALM      29.86S
DUBUQUE        CLOUDY    32  28  85 NE3       29.88S
MONTICELLO *   CLOUDY    32  28  86 CALM      29.88S
OELWEIN *      CLOUDY    32  30  93 E8        29.87S WCI  25
WATERLOO       CLOUDY    32  27  81 NE9       29.86F WCI  24
$$

IAZ064-065-067-068-078-241700-
   EAST CENTRAL IOWA

CITY           SKY/WX    TMP DP  RH WIND       PRES   REMARKS
DAVENPORT      CLOUDY    35  29  78 E3        29.89F
IOWA CITY      CLOUDY    33  28  81 E6        29.90S WCI  28
MUSCATINE *    CLOUDY    36  30  80 E6        29.90S WCI  31
QUAD CITIES    CLOUDY    36  30  79 E5        29.89F WCI  32
$$

IAZ062-063-075>077-085>089-095>099-241700-
   SOUTHEAST IOWA

CITY           SKY/WX    TMP DP  RH WIND       PRES   REMARKS
BURLINGTON     CLOUDY    33  30  88 SE9       29.89R WCI  25
FAIRFIELD *    CLOUDY    32  28  86 E9        29.87S FOG     WCI  24
FORT MADISON * CLOUDY    34  30  86 E5        29.89S WCI  30
KEOKUK *       CLOUDY    36 N/A N/A E9        29.87F WCI  29
OSKALOOSA *    CLOUDY    31  30  96 E12       29.87R FOG     WCI  21
CENTERVILLE *  MIX PCPN  30  30 100 E10       29.85F WCI  21
OTTUMWA        CLOUDY    31  28  89 E13       29.85S WCI  21
WASHINGTON *   CLOUDY    32  30  93 E12       29.89S WCI  23
$$

ABBREVIATIONS USED IN REMARKS
   TC - TEMPERATURES IN CELSIUS
  WCI - WIND CHILL INDEX
   HX - HEAT INDEX
  VSB - VISIBILITY
$$





USA.gov is the U.S. government's official web portal to all federal, state and local government web resources and services.